Home   Weather   Bielsko-Biała   Past weeks
Flag for Poland

Past Weather in Bielsko-Biała, Poland — Yesterday and Last 2 Weeks

Now
46 °F

Fog.


Feels Like: 46 °F
Forecast: 74 / 52 °F
Wind: 1 mph from East

Location: Katowice

Current Time: Oct 14, 2019 at 6:10:14 am

Latest Report: Oct 14, 2019 at 5:00 am


Visibility: 6 mi

Pressure: 30.12 "Hg

Humidity: 96%

Dew Point: 44 °F

Location of Bielsko-BiałaLocation

Past Weather in Bielsko-Biała — Graph

°F

Bielsko-Biała Temperature Yesterday

Maximum temperature yesterday: 71 °F (at 3:00 pm)
Minimum temperature yesterday: 45 °F (at 7:00 am)
Average temperature yesterday: 58 °F

High & Low Weather Summary for the Past Weeks

 TemperatureHumidityPressure
High71 °F (Oct 13, 3:00 pm)100% (Oct 7, 10:00 am)30.19 "Hg (Oct 7, 10:00 am)
Low23 °F (Oct 7, 10:00 am)39% (Oct 7, 2:00 pm)29.47 "Hg (Sep 30, 6:00 am)
Average51 °F78%29.93 "Hg
* Reported Sep 29 4:00 am — Oct 14 4:00 am, Bielsko-Biała. Weather by CustomWeather, © 2019

Note: Actual official high and low records may vary slightly from our data, if they occured in-between our weather recording intervals... More about our weather records

Advertising

Bielsko-Biała Weather History for the Previous 24 Hours

Scroll right to see more
 ConditionsComfort  
Time TempWeatherWind HumidityBarometerVisibility
4:00 am
Mon, Oct 14
47 °FFog.1 mph96%30.11 "Hg6 mi
3:00 am49 °FFog.1 mph96%30.11 "Hg6 mi
2:00 am50 °FFog.1 mph95%30.11 "Hg6 mi
1:00 am51 °FFog.1 mph93%30.11 "Hg6 mi
12:00 am52 °FPassing clouds.2 mph90%30.12 "Hg6 mi
11:00 pm
Sun, Oct 13
55 °FOvercast.2 mph84%30.12 "Hg9 mi
10:00 pm57 °FPassing clouds.3 mph83%30.12 "Hg9 mi
9:00 pm58 °FPassing clouds.3 mph82%30.12 "Hg9 mi
8:00 pm58 °FPassing clouds.5 mph87%30.12 "Hg12 mi
7:00 pm59 °FPassing clouds.2 mph80%30.10 "Hg12 mi
6:00 pm61 °FPassing clouds.2 mph75%30.08 "Hg12 mi
5:00 pm68 °FPassing clouds.3 mph60%30.07 "Hg19 mi
4:00 pm70 °FPassing clouds.5 mph54%30.07 "Hg19 mi
3:00 pm71 °FPassing clouds.5 mph51%30.08 "Hg19 mi
2:00 pm70 °FPassing clouds.7 mph51%30.08 "Hg19 mi
1:00 pm69 °FPassing clouds.5 mph53%30.09 "Hg19 mi
12:00 pm65 °FScattered clouds.6 mph64%30.10 "Hg19 mi
11:00 am64 °FPassing clouds.3 mph62%30.10 "Hg19 mi
10:00 am60 °FPassing clouds.2 mph72%30.11 "Hg12 mi
9:00 am56 °FScattered clouds.3 mph78%30.11 "Hg12 mi
8:00 am50 °FPartly sunny.1 mph97%30.11 "Hg9 mi
7:00 am45 °FFog.1 mph96%30.12 "Hg6 mi
6:00 am46 °FPassing clouds.1 mph95%30.11 "Hg6 mi
Weather by CustomWeather, © 2019

See weather overview